Showing default

COSMOS 1999, 19790

Orbit data source: Space-Track

COSMOS 1999, 19790 is a payload satellite owned by UNKS (CIS) in LEO that was launched on Fri, 10 Feb 1989 UTC via a TSIKLON-3 launch vehicle from the Plesetsk Missile And Space Complex (PKMTR). Payload-class satellites include a variety of spacecraft equipped with specific instruments for various scientific and technological missions. These include communications satellites like Starlink; space stations such as the ISS; scientific satellites like the Hubble; Earth observation satellites from companies like Planet Labs, Umbra, and HawkEye 360; GPS; miniature CubeSats for education and research; and military/defense satellites.

Loading next visibility...
Identifier
19790, 1989-009F
Orbit
LEO
Country
Flag of CISCIS
Related business
Manufacturer
NPO PM
Mission
Defense Communications
Bus & Motor
STRELA-3, Unknown motor
Mass
225 kg wet, 225 kg dry
Launch date (UTC)
1989-02-10 (37 years ago)
Launch vehicle
TSIKLON-3
Launch site
Plesetsk Missile And Space Complex (PKMTR)
Object type
Payload
Rocket body
Debris
Shape & HBR
Cyl, 0.8 m
Radar Cross Section
1.257 m², Medium (>0.1 m² and < 1m²)

Expand to show TLE details & history
Last TLE update: 5 hours ago

TLE from 5 hours ago
0 COSMOS 1999
1 19790U 89009F   25351.31429061  .00000008  00000-0 -15195-4 0  9998
2 19790  82.6187  82.9098 0018492 277.3142 138.0482 12.65744851702240
Epoch: 2025-12-17T07:32Z
TLE epoch observation values (Epoch: 2025-12-17T07:32:34.708Z)
Latitude
54.91054°
Longitude
-105.84783°
Altitude
1,419.056 km
Speed
7.151 km/s
True Right ascension
06h 13m 55s
True Declination
54° 45' 44"
Sunlit
Object was in full shadow at epoch
Visualization orbit readout
Latitude
Unknown
Longitude
Unknown
Altitude
Unknown
Speed
Unknown
Apparent Right ascension
Unknown
Apparent Declination
Unknown
Sunlit
N/A
Visualization observer readout
Local Sidereal Time
11:19:53
Azimuth
Unknown
Elevation
Unknown
Doppler factor
Unknown
Orbital elements
Apogee altitude
1,411.013 km
Perigee altitude
1,382.259 km
Semi-major axis
7,774.773 km
Eccentricity
0.00185
Inclination
82.6187°
RAAN
82.9098°
Arg. of periapsis
277.3142°
True anomaly
138.18961°
Mean anomaly
138.0482°
Eccentric anomaly
138.11893°
Mean motion
3.166 °/min
Orbital period
113.71 mins
BSTAR
-0.000015195
Loading maneuver chart data...
Computing Atmospheric mass density...
Loading historical data...
Loading historical data...
Loading historical data...
Loading historical data...
Loading historical data...
Loading historical data...
Loading historical data...

Documentation

Showing up to 5 results
|